"read_dt","SO2 (ppb)","flags","PMT voltage (V)","lamp voltage (V)","lamp intensity (Hz)","internal temp (C)","react chamber temp (C)","sample flow (l/min)","pres (mmHg)","SO2 bkg (ppb)","SO2 coefficient"
2018-09-20 00:00:00,-3.217E-01,4C000000*,-702.6,960.150,90,29.9,44.8,0.409,737.8,2.1,1.050*
2018-09-20 00:01:00,-2.779E-01,4C000000*,-702.6,959.341,90,29.9,45.1,0.409,737.8,2.1,1.050*
2018-09-20 00:02:00,-3.524E-01,4C000000*,-702.6,959.341,90,29.9,44.9,0.409,737.8,2.1,1.050*
2018-09-20 00:03:00,-3.094E-01,4C000000*,-702.6,959.745,90,29.9,45.0,0.409,737.8,2.1,1.050*
2018-09-20 00:04:00,-3.471E-01,4C000000*,-702.6,959.341,91,29.9,45.1,0.409,737.8,2.1,1.050*
2018-09-20 00:05:00,-2.484E-01,4C000000*,-703.0,959.745,90,30.0,44.9,0.409,737.8,2.1,1.050*
2018-09-20 00:06:00,-2.870E-01,4C000000*,-702.6,959.341,90,29.9,45.2,0.409,737.8,2.1,1.050*
2018-09-20 00:07:00,-3.475E-01,4C000000*,-702.6,958.532,90,29.9,44.9,0.409,737.8,2.1,1.050*
2018-09-20 00:08:00,-3.633E-01,4C000000*,-703.0,959.745,89,30.0,45.1,0.409,737.8,2.1,1.050*
2018-09-20 00:09:00,-3.190E-01,4C000000*,-702.6,960.150,91,29.9,44.9,0.408,737.8,2.1,1.050*
2018-09-20 00:10:00,-3.068E-01,4C000000*,-702.6,959.341,91,29.9,45.0,0.409,737.8,2.1,1.050*
2018-09-20 00:11:00,-2.964E-01,4C000000*,-702.6,959.745,91,30.0,45.1,0.409,737.8,2.1,1.050*
2018-09-20 00:12:00,-3.425E-01,4C000000*,-702.6,959.745,88,30.0,44.9,0.409,737.8,2.1,1.050*
2018-09-20 00:13:00,-3.082E-01,4C000000*,-702.6,959.341,89,30.0,45.1,0.409,737.8,2.1,1.050*
2018-09-20 00:14:00,-3.153E-01,4C000000*,-702.6,959.745,89,30.0,44.8,0.409,737.8,2.1,1.050*
2018-09-20 00:15:00,-3.509E-01,4C000000*,-702.6,958.937,90,30.0,45.1,0.409,737.8,2.1,1.050*
2018-09-20 00:16:00,-3.739E-01,4C000000*,-702.6,958.128,90,30.0,44.8,0.409,737.8,2.1,1.050*
2018-09-20 00:17:00,-3.421E-01,4C000000*,-702.6,959.341,90,30.0,45.1,0.409,737.8,2.1,1.050*
2018-09-20 00:18:00,-2.990E-01,4C000000*,-703.0,959.341,91,30.0,45.0,0.409,737.8,2.1,1.050*
2018-09-20 00:19:00,-3.338E-01,4C000000*,-702.6,958.532,90,30.0,45.0,0.409,737.8,2.1,1.050*
2018-09-20 00:20:00,-3.082E-01,4C000000*,-702.6,960.150,91,30.0,45.1,0.409,737.8,2.1,1.050*
2018-09-20 00:21:00,-3.820E-01,4C000000*,-702.6,959.745,90,30.0,44.9,0.409,737.8,2.1,1.050*
2018-09-20 00:22:00,-3.111E-01,4C000000*,-702.6,958.937,90,30.1,45.2,0.409,737.8,2.1,1.050*
2018-09-20 00:23:00,-3.613E-01,4C000000*,-702.6,960.958,89,30.0,44.8,0.408,737.8,2.1,1.050*
2018-09-20 00:24:00,-3.201E-01,4C000000*,-702.3,960.150,91,30.0,45.1,0.409,737.8,2.1,1.050*
2018-09-20 00:25:00,-3.961E-01,4C000000*,-703.0,959.341,90,29.9,44.9,0.409,737.8,2.1,1.050*
2018-09-20 00:26:00,-2.328E-01,4C000000*,-702.6,958.937,91,30.0,45.0,0.409,737.8,2.1,1.050*
2018-09-20 00:27:00,-3.363E-01,4C000000*,-702.6,959.745,90,30.0,45.1,0.409,737.5,2.1,1.050*
2018-09-20 00:28:00,-3.628E-01,4C000000*,-703.0,959.745,89,29.9,44.9,0.409,737.8,2.1,1.050*
2018-09-20 00:29:00,-2.516E-01,4C000000*,-702.6,960.150,91,30.0,45.2,0.409,737.8,2.1,1.050*
2018-09-20 00:30:00,-2.863E-01,4C000000*,-702.6,958.937,89,30.0,44.8,0.409,737.8,2.1,1.050*
2018-09-20 00:31:00,-3.447E-01,4C000000*,-703.0,959.745,90,30.0,45.1,0.409,737.8,2.1,1.050*
2018-09-20 00:32:00,-2.820E-01,4C000000*,-702.3,959.341,90,29.9,44.9,0.408,737.5,2.1,1.050*
2018-09-20 00:33:00,-3.124E-01,4C000000*,-702.6,958.937,90,30.0,45.0,0.409,737.8,2.1,1.050*
2018-09-20 00:34:00,-3.641E-01,4C000000*,-702.3,958.532,89,30.0,45.1,0.408,737.5,2.1,1.050*
2018-09-20 00:35:00,-3.275E-01,4C000000*,-703.0,957.724,90,29.9,44.9,0.409,737.8,2.1,1.050*
2018-09-20 00:36:00,-3.581E-01,4C000000*,-702.6,959.745,90,29.9,45.2,0.409,737.8,2.1,1.050*
2018-09-20 00:37:00,-2.642E-01,4C000000*,-702.6,958.937,89,30.0,44.9,0.409,737.8,2.1,1.050*
2018-09-20 00:38:00,-3.060E-01,4C000000*,-702.6,958.937,90,29.9,45.1,0.408,737.5,2.1,1.050*
2018-09-20 00:39:00,-3.265E-01,4C000000*,-703.0,958.532,90,30.0,44.9,0.409,737.5,2.1,1.050*
2018-09-20 00:40:00,-3.467E-01,4C000000*,-702.6,958.128,90,30.0,45.0,0.409,737.5,2.1,1.050*
2018-09-20 00:41:00,-2.808E-01,4C000000*,-702.6,960.958,89,30.0,45.1,0.408,737.8,2.1,1.050*
2018-09-20 00:42:00,-2.919E-01,4C000000*,-702.6,958.128,90,30.0,44.9,0.409,737.8,2.1,1.050*
2018-09-20 00:43:00,-2.828E-01,4C000000*,-702.6,959.745,91,30.0,45.1,0.409,737.5,2.1,1.050*
2018-09-20 00:44:00,-3.261E-01,4C000000*,-702.6,960.554,90,30.0,44.9,0.409,737.8,2.1,1.050*
2018-09-20 00:45:00,-4.233E-01,4C000000*,-702.6,959.341,90,30.1,45.2,0.409,737.5,2.1,1.050*
2018-09-20 00:46:00,-3.495E-01,4C000000*,-702.6,958.937,89,30.0,44.9,0.409,737.5,2.1,1.050*
2018-09-20 00:47:00,-3.456E-01,4C000000*,-702.6,958.937,90,30.1,45.1,0.409,737.5,2.1,1.050*
2018-09-20 00:48:00,-3.541E-01,4C000000*,-702.6,960.958,90,30.0,45.0,0.409,737.5,2.1,1.050*
2018-09-20 00:49:00,-3.051E-01,4C000000*,-702.6,958.532,90,30.0,45.0,0.409,737.8,2.1,1.050*
2018-09-20 00:50:00,-3.574E-01,4C000000*,-702.6,959.341,90,30.0,45.1,0.409,737.5,2.1,1.050*
2018-09-20 00:51:00,-3.189E-01,4C000000*,-702.6,960.150,90,30.0,44.9,0.409,737.8,2.1,1.050*
2018-09-20 00:52:00,-2.901E-01,4C000000*,-702.6,960.150,90,30.0,45.2,0.409,737.5,2.1,1.050*
2018-09-20 00:53:00,-3.119E-01,4C000000*,-702.6,960.150,90,30.0,44.8,0.409,737.8,2.1,1.050*
2018-09-20 00:54:00,-2.657E-01,4C000000*,-702.6,958.937,90,30.1,45.1,0.408,737.8,2.1,1.050*
2018-09-20 00:55:00,-2.923E-01,4C000000*,-702.3,958.937,88,30.1,44.9,0.409,737.5,2.1,1.050*
2018-09-20 00:56:00,-2.915E-01,4C000000*,-702.3,959.341,90,30.0,45.0,0.409,737.8,2.1,1.050*
2018-09-20 00:57:00,-3.739E-01,4C000000*,-702.3,958.937,89,30.1,45.0,0.408,737.5,2.1,1.050*
2018-09-20 00:58:00,-3.861E-01,4C000000*,-702.3,959.745,89,30.1,44.9,0.409,737.5,2.1,1.050*
2018-09-20 00:59:00,-3.177E-01,4C000000*,-703.0,960.150,90,30.2,45.2,0.409,737.5,2.1,1.050*
2018-09-20 01:00:00,-3.147E-01,4C000000*,-702.3,959.745,90,30.1,44.8,0.408,737.5,2.1,1.050*
2018-09-20 01:01:00,-3.026E-01,4C000000*,-702.6,960.150,90,30.0,45.1,0.409,737.8,2.1,1.050*
2018-09-20 01:02:00,-3.080E-01,4C000000*,-702.6,958.532,90,30.0,44.9,0.408,737.5,2.1,1.050*
2018-09-20 01:03:00,-3.291E-01,4C000000*,-702.3,958.937,90,29.9,45.0,0.409,737.5,2.1,1.050*
2018-09-20 01:04:00,-3.501E-01,4C000000*,-702.6,960.150,91,29.9,45.1,0.408,737.8,2.1,1.050*
2018-09-20 01:05:00,-3.178E-01,4C000000*,-702.6,958.937,89,30.0,44.9,0.409,737.5,2.1,1.050*
2018-09-20 01:06:00,-3.475E-01,4C000000*,-702.6,959.341,90,29.9,45.2,0.408,737.5,2.1,1.050*
2018-09-20 01:07:00,-3.032E-01,4C000000*,-702.3,958.937,89,29.9,44.8,0.409,737.5,2.1,1.050*
2018-09-20 01:08:00,-3.082E-01,4C000000*,-702.6,960.150,91,29.9,45.1,0.409,737.5,2.1,1.050*
2018-09-20 01:09:00,-3.254E-01,4C000000*,-702.6,959.745,89,29.8,44.9,0.409,737.5,2.1,1.050*
2018-09-20 01:10:00,-3.274E-01,4C000000*,-702.6,960.150,90,29.7,45.0,0.409,737.8,2.1,1.050*
2018-09-20 01:11:00,-3.445E-01,4C000000*,-702.6,959.745,89,29.7,45.1,0.409,737.5,2.1,1.050*
2018-09-20 01:12:00,-3.071E-01,4C000000*,-703.0,960.958,91,29.6,44.9,0.409,737.5,2.1,1.050*
2018-09-20 01:13:00,-3.220E-01,4C000000*,-702.6,958.937,89,29.5,45.1,0.408,737.5,2.1,1.050*
2018-09-20 01:14:00,-3.409E-01,4C000000*,-702.3,960.150,89,29.5,44.9,0.409,737.5,2.1,1.050*
2018-09-20 01:15:00,-2.330E-01,4C000000*,-702.3,960.150,90,29.4,45.1,0.408,737.5,2.1,1.050*
2018-09-20 01:16:00,-3.539E-01,4C000000*,-702.6,958.937,89,29.4,44.8,0.408,737.5,2.1,1.050*
2018-09-20 01:17:00,-2.886E-01,4C000000*,-702.6,959.341,90,29.4,45.0,0.409,737.5,2.1,1.050*
2018-09-20 01:18:00,-3.216E-01,4C000000*,-702.6,959.341,88,29.4,45.0,0.408,737.5,2.1,1.050*
2018-09-20 01:19:00,-2.979E-01,4C000000*,-703.0,959.341,90,29.3,45.0,0.409,737.5,2.1,1.050*
2018-09-20 01:20:00,-2.942E-01,4C000000*,-703.0,960.554,90,29.4,45.0,0.408,737.5,2.1,1.050*
2018-09-20 01:21:00,-3.388E-01,4C000000*,-703.0,959.745,90,29.3,44.8,0.409,737.5,2.1,1.050*
2018-09-20 01:22:00,-3.240E-01,4C000000*,-702.6,958.532,90,29.3,45.2,0.408,737.5,2.1,1.050*
2018-09-20 01:23:00,-3.240E-01,4C000000*,-702.6,960.554,90,29.2,45.0,0.408,737.5,2.1,1.050*
2018-09-20 01:24:00,-2.030E-01,4C000000*,-702.6,960.150,91,29.2,44.8,0.409,737.5,2.1,1.050*
2018-09-20 01:25:00,-3.008E-01,4C000000*,-702.6,958.532,89,29.1,45.1,0.408,737.5,2.1,1.050*
2018-09-20 01:26:00,-3.937E-01,4C000000*,-702.6,959.341,90,29.0,44.8,0.408,737.5,2.1,1.050*
2018-09-20 01:27:00,-3.196E-01,4C000000*,-702.6,959.745,90,28.9,45.1,0.408,737.5,2.1,1.050*
2018-09-20 01:28:00,-2.617E-01,4C000000*,-702.6,958.937,89,28.9,44.9,0.408,737.5,2.1,1.050*
2018-09-20 01:29:00,-2.903E-01,4C000000*,-702.6,958.937,90,28.8,45.0,0.408,737.5,2.1,1.050*
2018-09-20 01:30:00,-2.618E-01,4C000000*,-703.0,960.554,89,28.8,45.0,0.408,737.5,2.1,1.050*
2018-09-20 01:31:00,-2.755E-01,4C000000*,-702.6,960.150,90,28.9,45.0,0.409,737.5,2.1,1.050*
2018-09-20 01:32:00,-4.244E-01,4C000000*,-702.6,959.341,90,28.8,45.1,0.409,737.5,2.1,1.050*
2018-09-20 01:33:00,-3.553E-01,4C000000*,-702.6,958.937,89,28.7,44.8,0.408,737.5,2.1,1.050*
2018-09-20 01:34:00,-2.993E-01,4C000000*,-702.6,960.150,88,28.7,45.2,0.408,737.5,2.1,1.050*
2018-09-20 01:35:00,-3.480E-01,4C000000*,-702.6,959.745,89,28.7,44.8,0.408,737.8,2.1,1.050*
2018-09-20 01:36:00,-3.251E-01,4C000000*,-702.6,958.937,90,28.7,45.0,0.409,737.5,2.1,1.050*
2018-09-20 01:37:00,-3.243E-01,4C000000*,-702.6,960.150,91,28.6,45.0,0.408,737.5,2.1,1.050*
2018-09-20 01:38:00,-3.592E-01,4C000000*,-703.0,960.150,90,28.6,45.0,0.408,737.8,2.1,1.050*
2018-09-20 01:39:00,-2.543E-01,4C000000*,-702.6,959.341,89,28.6,45.1,0.409,737.5,2.1,1.050*
2018-09-20 01:40:00,-3.597E-01,4C000000*,-703.0,960.150,89,28.6,44.9,0.408,737.8,2.1,1.050*
2018-09-20 01:41:00,-4.098E-01,4C000000*,-702.6,960.554,90,28.5,45.2,0.409,737.5,2.1,1.050*
2018-09-20 01:42:00,-2.861E-01,4C000000*,-703.0,959.341,90,28.5,44.8,0.408,737.8,2.1,1.050*
2018-09-20 01:43:00,-3.891E-01,4C000000*,-702.6,961.362,90,28.5,45.0,0.408,737.5,2.1,1.050*
2018-09-20 01:44:00,-2.727E-01,4C000000*,-702.6,960.958,91,28.5,44.9,0.408,737.5,2.1,1.050*
2018-09-20 01:45:00,-3.366E-01,4C000000*,-702.6,960.554,90,28.5,45.0,0.408,737.8,2.1,1.050*
2018-09-20 01:46:00,-4.061E-01,4C000000*,-702.6,960.150,89,28.4,45.1,0.408,737.5,2.1,1.050*
2018-09-20 01:47:00,-3.630E-01,4C000000*,-702.6,959.341,90,28.5,44.9,0.408,737.8,2.1,1.050*
2018-09-20 01:48:00,-3.293E-01,4C000000*,-702.6,958.532,91,28.4,45.1,0.408,737.5,2.1,1.050*
2018-09-20 01:49:00,-2.825E-01,4C000000*,-702.6,960.150,90,28.4,44.8,0.408,737.8,2.1,1.050*
2018-09-20 01:50:00,-2.318E-01,4C000000*,-702.6,959.341,91,28.4,45.1,0.409,737.8,2.1,1.050*
2018-09-20 01:51:00,-3.607E-01,4C000000*,-702.6,958.937,90,28.4,44.9,0.408,737.5,2.1,1.050*
2018-09-20 01:52:00,-3.459E-01,4C000000*,-702.6,960.554,89,28.4,45.0,0.408,737.5,2.1,1.050*
2018-09-20 01:53:00,-2.489E-01,4C000000*,-702.6,958.937,90,28.5,45.1,0.408,737.8,2.1,1.050*
2018-09-20 01:54:00,-3.369E-01,4C000000*,-702.6,960.554,90,28.4,44.9,0.408,737.8,2.1,1.050*
2018-09-20 01:55:00,-2.967E-01,4C000000*,-702.6,959.745,90,28.4,45.1,0.408,737.8,2.1,1.050*
2018-09-20 01:56:00,-3.188E-01,4C000000*,-702.3,960.554,91,28.4,44.9,0.408,737.8,2.1,1.050*
2018-09-20 01:57:00,-3.134E-01,4C000000*,-703.0,959.341,90,28.4,45.2,0.408,737.8,2.1,1.050*
2018-09-20 01:58:00,-3.182E-01,4C000000*,-702.6,960.554,91,28.4,44.8,0.408,737.8,2.1,1.050*
2018-09-20 01:59:00,-3.277E-01,4C000000*,-703.0,959.745,89,28.4,45.1,0.408,737.8,2.1,1.050*
2018-09-20 02:00:00,-3.131E-01,4C000000*,-703.0,960.150,89,28.4,44.9,0.408,737.5,2.1,1.050*
2018-09-20 02:01:00,-3.131E-01,4C000000*,-702.6,960.150,87,28.3,44.9,0.408,737.8,2.1,1.050*
2018-09-20 02:02:00,-3.435E-01,4C000000*,-702.6,960.554,90,28.3,45.0,0.408,737.8,2.1,1.050*
2018-09-20 02:03:00,-2.836E-01,4C000000*,-703.0,961.767,89,28.4,44.8,0.408,737.8,2.1,1.050*
2018-09-20 02:04:00,-3.396E-01,4C000000*,-702.6,959.745,89,28.4,45.2,0.408,737.8,2.1,1.050*
2018-09-20 02:05:00,-3.468E-01,4C000000*,-702.6,960.958,90,28.3,44.8,0.408,737.5,2.1,1.050*
2018-09-20 02:06:00,-2.123E-01,4C000000*,-703.0,959.745,89,28.3,45.1,0.408,737.8,2.1,1.050*
2018-09-20 02:07:00,-3.449E-01,4C000000*,-702.6,959.341,90,28.2,45.0,0.408,737.8,2.1,1.050*
2018-09-20 02:08:00,-2.713E-01,4C000000*,-702.6,960.150,90,28.2,44.9,0.408,737.8,2.1,1.050*
2018-09-20 02:09:00,-3.052E-01,4C000000*,-703.0,959.745,90,28.2,45.1,0.408,737.8,2.1,1.050*
2018-09-20 02:10:00,-3.556E-01,4C000000*,-702.6,958.532,90,28.2,44.9,0.408,737.8,2.1,1.050*
2018-09-20 02:11:00,-2.801E-01,4C000000*,-702.6,960.150,90,28.2,45.2,0.408,737.5,2.1,1.050*
2018-09-20 02:12:00,-3.218E-01,4C000000*,-703.4,959.745,90,28.2,44.9,0.408,737.8,2.1,1.050*
2018-09-20 02:13:00,-3.511E-01,4C000000*,-702.6,958.937,90,28.2,45.0,0.408,737.8,2.1,1.050*
2018-09-20 02:14:00,-4.352E-01,4C000000*,-702.6,959.745,90,28.2,44.9,0.408,737.5,2.1,1.050*
2018-09-20 02:15:00,-3.226E-01,4C000000*,-702.6,959.745,90,28.2,45.0,0.409,737.8,2.1,1.050*
2018-09-20 02:16:00,-4.102E-01,4C000000*,-703.0,960.958,89,28.2,45.1,0.408,737.5,2.1,1.050*
2018-09-20 02:17:00,-3.061E-01,4C000000*,-702.6,959.745,89,28.2,44.9,0.408,737.5,2.1,1.050*
2018-09-20 02:18:00,-3.787E-01,4C000000*,-703.0,958.937,91,28.2,45.1,0.408,737.8,2.1,1.050*
2018-09-20 02:19:00,-3.590E-01,4C000000*,-702.6,960.150,90,28.1,44.8,0.408,737.8,2.1,1.050*
2018-09-20 02:20:00,-3.261E-01,4C000000*,-702.6,959.745,91,28.2,45.1,0.408,737.8,2.1,1.050*
2018-09-20 02:21:00,-3.406E-01,4C000000*,-702.6,958.532,90,28.1,44.9,0.408,737.5,2.1,1.050*
2018-09-20 02:22:00,-2.781E-01,4C000000*,-703.0,958.128,91,28.1,44.9,0.408,737.8,2.1,1.050*
2018-09-20 02:23:00,-4.163E-01,4C000000*,-703.4,959.341,89,28.1,45.1,0.408,737.5,2.1,1.050*
2018-09-20 02:24:00,-2.772E-01,4C000000*,-702.3,960.150,90,28.1,44.8,0.408,737.8,2.1,1.050*
2018-09-20 02:25:00,-2.701E-01,4C000000*,-702.3,959.341,90,28.1,45.0,0.408,737.8,2.1,1.050*
2018-09-20 02:26:00,-3.967E-01,4C000000*,-702.6,960.150,90,28.1,45.0,0.408,737.5,2.1,1.050*
2018-09-20 02:27:00,-2.939E-01,4C000000*,-703.0,960.150,90,28.1,44.8,0.408,737.8,2.1,1.050*
2018-09-20 02:28:00,-2.935E-01,4C000000*,-702.3,960.554,89,28.1,45.2,0.408,737.5,2.1,1.050*
2018-09-20 02:29:00,-2.931E-01,4C000000*,-702.6,960.554,90,28.1,44.8,0.407,737.8,2.1,1.050*
2018-09-20 02:30:00,-3.442E-01,4C000000*,-703.0,960.958,90,28.1,45.0,0.408,737.8,2.1,1.050*
2018-09-20 02:31:00,-3.323E-01,4C000000*,-702.6,959.341,90,28.0,44.9,0.408,737.5,2.1,1.050*
2018-09-20 02:32:00,-2.741E-01,4C000000*,-702.6,959.745,91,28.1,45.0,0.408,737.5,2.1,1.050*
2018-09-20 02:33:00,-3.636E-01,4C000000*,-703.0,960.958,90,28.1,45.1,0.408,737.8,2.1,1.050*
2018-09-20 02:34:00,-3.369E-01,4C000000*,-703.0,958.937,90,28.0,44.9,0.408,737.8,2.1,1.050*
2018-09-20 02:35:00,-3.595E-01,4C000000*,-702.6,958.937,89,28.0,45.1,0.408,737.5,2.1,1.050*
2018-09-20 02:36:00,-3.204E-01,4C000000*,-702.6,959.745,89,28.0,44.8,0.408,737.8,2.1,1.050*
2018-09-20 02:37:00,-3.304E-01,4C000000*,-702.6,958.937,89,28.1,45.1,0.408,737.8,2.1,1.050*
2018-09-20 02:38:00,-2.788E-01,4C000000*,-703.0,958.937,90,28.0,44.9,0.408,737.5,2.1,1.050*
2018-09-20 02:39:00,-3.621E-01,4C000000*,-702.6,958.937,91,28.0,45.0,0.408,737.8,2.1,1.050*
2018-09-20 02:40:00,-2.825E-01,4C000000*,-702.6,958.532,89,28.0,45.0,0.408,737.5,2.1,1.050*
2018-09-20 02:41:00,-3.719E-01,4C000000*,-702.6,958.532,89,28.0,44.9,0.408,737.8,2.1,1.050*
2018-09-20 02:42:00,-2.739E-01,4C000000*,-702.6,959.341,90,27.9,45.1,0.408,737.8,2.1,1.050*
2018-09-20 02:43:00,-2.636E-01,4C000000*,-702.6,959.341,90,28.0,44.8,0.408,737.8,2.1,1.050*
2018-09-20 02:44:00,-2.964E-01,4C000000*,-703.0,960.150,90,28.0,45.2,0.408,737.8,2.1,1.050*
2018-09-20 02:45:00,-3.158E-01,4C000000*,-703.0,958.937,90,28.0,44.9,0.408,737.5,2.1,1.050*
2018-09-20 02:46:00,-2.688E-01,4C000000*,-703.0,960.150,90,28.0,45.0,0.408,737.8,2.1,1.050*
2018-09-20 02:47:00,-2.739E-01,4C000000*,-702.6,959.745,90,28.1,44.9,0.408,737.5,2.1,1.050*
2018-09-20 02:48:00,-4.023E-01,4C000000*,-702.6,959.745,89,28.0,45.0,0.408,737.5,2.1,1.050*
2018-09-20 02:49:00,-3.597E-01,4C000000*,-702.6,959.341,91,28.0,45.1,0.408,737.5,2.1,1.050*
2018-09-20 02:50:00,-3.111E-01,4C000000*,-703.0,958.937,89,28.0,44.8,0.408,737.8,2.1,1.050*
2018-09-20 02:51:00,-3.260E-01,4C000000*,-702.6,958.937,90,28.1,45.2,0.408,737.8,2.1,1.050*
2018-09-20 02:52:00,-3.043E-01,4C000000*,-702.6,958.937,90,28.0,44.9,0.408,737.8,2.1,1.050*
2018-09-20 02:53:00,-3.558E-01,4C000000*,-702.6,959.341,90,28.0,45.0,0.408,737.8,2.1,1.050*
2018-09-20 02:54:00,-3.945E-01,4C000000*,-702.6,958.937,90,28.0,44.9,0.408,737.5,2.1,1.050*
2018-09-20 02:55:00,-3.560E-01,4C000000*,-703.0,960.150,89,28.0,45.0,0.408,737.8,2.1,1.050*
2018-09-20 02:56:00,-3.296E-01,4C000000*,-702.6,960.554,89,28.1,45.1,0.408,737.5,2.1,1.050*
2018-09-20 02:57:00,-2.959E-01,4C000000*,-702.3,959.745,90,27.9,44.8,0.408,737.8,2.1,1.050*
2018-09-20 02:58:00,-3.719E-01,4C000000*,-703.0,959.745,90,28.0,45.1,0.408,737.8,2.1,1.050*
2018-09-20 02:59:00,-3.557E-01,4C000000*,-703.0,959.341,90,27.9,44.8,0.408,737.5,2.1,1.050*
2018-09-20 03:00:00,-3.365E-01,4C000000*,-702.6,959.341,90,28.0,44.9,0.408,737.8,2.1,1.050*
2018-09-20 03:01:00,-3.120E-01,4C000000*,-702.3,959.745,89,27.9,45.2,0.408,737.5,2.1,1.050*
2018-09-20 03:02:00,-3.133E-01,4C000000*,-703.0,959.341,88,28.0,44.8,0.408,737.8,2.1,1.050*
2018-09-20 03:03:00,-2.967E-01,4C000000*,-702.6,959.341,92,28.0,45.0,0.408,737.8,2.1,1.050*
2018-09-20 03:04:00,-3.023E-01,4C000000*,-702.6,960.150,89,27.9,45.0,0.408,737.5,2.1,1.050*
2018-09-20 03:05:00,-3.032E-01,4C000000*,-703.0,960.150,90,27.9,45.0,0.408,737.8,2.1,1.050*
2018-09-20 03:06:00,-4.046E-01,4C000000*,-703.0,958.937,89,27.9,45.1,0.408,737.5,2.1,1.050*
2018-09-20 03:07:00,-2.783E-01,4C000000*,-702.6,959.341,90,28.0,44.9,0.408,737.8,2.1,1.050*
2018-09-20 03:08:00,-2.569E-01,4C000000*,-703.0,959.341,90,27.9,45.2,0.408,737.8,2.1,1.050*
2018-09-20 03:09:00,-4.028E-01,4C000000*,-702.6,960.958,90,27.9,44.8,0.408,737.8,2.1,1.050*
2018-09-20 03:10:00,-3.884E-01,4C000000*,-702.6,960.554,90,27.9,45.1,0.408,737.8,2.1,1.050*
2018-09-20 03:11:00,-4.245E-01,4C000000*,-703.4,959.745,90,28.0,44.9,0.408,737.8,2.1,1.050*
2018-09-20 03:12:00,-3.262E-01,4C000000*,-702.6,958.532,90,27.9,44.9,0.408,737.8,2.1,1.050*
2018-09-20 03:13:00,-3.402E-01,4C000000*,-703.0,959.341,90,27.9,45.1,0.408,737.8,2.1,1.050*
2018-09-20 03:14:00,-2.992E-01,4C000000*,-703.0,959.745,91,27.9,44.8,0.408,737.8,2.1,1.050*
2018-09-20 03:15:00,-3.737E-01,4C000000*,-702.6,959.341,90,28.0,45.2,0.408,737.8,2.1,1.050*
2018-09-20 03:16:00,-3.792E-01,4C000000*,-703.0,959.341,90,27.9,44.8,0.408,737.8,2.1,1.050*
2018-09-20 03:17:00,-4.020E-01,4C000000*,-702.6,959.745,89,28.0,45.0,0.408,737.8,2.1,1.050*
2018-09-20 03:18:00,-2.988E-01,4C000000*,-703.0,960.554,91,27.9,44.9,0.408,737.5,2.1,1.050*
2018-09-20 03:19:00,-3.182E-01,4C000000*,-702.6,958.937,90,27.9,44.9,0.408,737.8,2.1,1.050*
2018-09-20 03:20:00,-3.376E-01,4C000000*,-703.0,960.554,88,28.0,45.1,0.408,737.8,2.1,1.050*
2018-09-20 03:21:00,-2.900E-01,4C000000*,-702.6,958.937,90,27.9,44.9,0.408,737.8,2.1,1.050*
2018-09-20 03:22:00,-4.174E-01,4C000000*,-702.6,958.937,90,27.9,45.1,0.408,737.8,2.1,1.050*
2018-09-20 03:23:00,-2.902E-01,4C000000*,-703.0,958.532,91,27.8,44.8,0.408,737.8,2.1,1.050*
2018-09-20 03:24:00,-4.277E-01,4C000000*,-702.6,958.532,88,27.9,45.1,0.407,737.8,2.1,1.050*
2018-09-20 03:25:00,-3.750E-01,4C000000*,-703.0,960.150,90,27.9,44.9,0.408,737.8,2.1,1.050*
2018-09-20 03:26:00,-3.706E-01,4C000000*,-702.6,958.937,89,27.9,45.0,0.408,737.8,2.1,1.050*
2018-09-20 03:27:00,-3.502E-01,4C000000*,-702.6,960.554,91,27.8,45.0,0.408,737.5,2.1,1.050*
2018-09-20 03:28:00,-2.975E-01,4C000000*,-702.6,959.745,90,27.9,44.9,0.408,737.8,2.1,1.050*
2018-09-20 03:29:00,-3.057E-01,4C000000*,-703.0,959.341,90,27.8,45.1,0.408,737.5,2.1,1.050*
2018-09-20 03:30:00,-2.837E-01,4C000000*,-702.6,960.150,89,27.9,44.8,0.408,737.8,2.1,1.050*
2018-09-20 03:31:00,-3.170E-01,4C000000*,-702.6,959.745,90,27.9,45.2,0.408,737.5,2.1,1.050*
2018-09-20 03:32:00,-3.500E-01,4C000000*,-703.0,959.745,89,27.9,44.8,0.408,737.8,2.1,1.050*
2018-09-20 03:33:00,-2.591E-01,4C000000*,-703.4,958.532,90,27.9,45.0,0.408,737.8,2.1,1.050*
2018-09-20 03:34:00,-2.933E-01,4C000000*,-702.6,958.937,91,27.9,45.0,0.408,737.5,2.1,1.050*
2018-09-20 03:35:00,-3.165E-01,4C000000*,-703.0,959.745,90,27.9,44.9,0.408,737.5,2.1,1.050*
2018-09-20 03:36:00,-2.901E-01,4C000000*,-703.0,958.532,90,27.9,45.1,0.408,737.5,2.1,1.050*
2018-09-20 03:37:00,-3.028E-01,4C000000*,-702.6,959.341,91,27.9,44.9,0.408,737.5,2.1,1.050*
2018-09-20 03:38:00,-3.358E-01,4C000000*,-703.0,960.150,91,27.9,45.2,0.408,737.5,2.1,1.050*
2018-09-20 03:39:00,-3.406E-01,4C000000*,-703.0,959.745,91,27.8,44.8,0.408,737.8,2.1,1.050*
2018-09-20 03:40:00,-2.698E-01,4C000000*,-702.6,960.958,90,27.9,45.1,0.408,737.8,2.1,1.050*
2018-09-20 03:41:00,-3.355E-01,4C000000*,-702.6,960.554,90,27.9,44.9,0.408,737.5,2.1,1.050*
2018-09-20 03:42:00,-3.705E-01,4C000000*,-703.0,959.341,90,27.8,44.9,0.408,737.8,2.1,1.050*
2018-09-20 03:43:00,-2.461E-01,4C000000*,-702.6,959.745,89,27.9,45.1,0.408,737.5,2.1,1.050*
2018-09-20 03:44:00,-2.781E-01,4C000000*,-702.6,958.532,90,27.8,44.9,0.408,737.8,2.1,1.050*
2018-09-20 03:45:00,-2.367E-01,4C000000*,-702.6,960.554,90,27.8,45.1,0.408,737.5,2.1,1.050*
2018-09-20 03:46:00,-2.293E-01,4C000000*,-702.6,959.341,90,27.8,44.8,0.408,737.8,2.1,1.050*
2018-09-20 03:47:00,-2.681E-01,4C000000*,-702.6,959.745,90,27.9,45.1,0.408,737.5,2.1,1.050*
2018-09-20 03:48:00,-2.753E-01,4C000000*,-702.6,959.745,89,27.8,44.9,0.408,737.8,2.1,1.050*
2018-09-20 03:49:00,-2.889E-01,4C000000*,-703.0,958.937,90,27.8,45.0,0.408,737.5,2.1,1.050*
2018-09-20 03:50:00,-3.326E-01,4C000000*,-703.0,958.937,90,27.9,45.0,0.408,737.5,2.1,1.050*
2018-09-20 03:51:00,-2.997E-01,4C000000*,-703.0,959.341,90,27.8,44.9,0.408,737.8,2.1,1.050*
2018-09-20 03:52:00,-2.754E-01,4C000000*,-702.6,958.128,91,27.8,45.0,0.408,737.8,2.1,1.050*
2018-09-20 03:53:00,-3.282E-01,4C000000*,-703.0,958.937,90,27.8,44.8,0.408,737.8,2.1,1.050*
2018-09-20 03:54:00,-3.277E-01,4C000000*,-703.0,959.341,88,27.8,45.2,0.408,737.8,2.1,1.050*
2018-09-20 03:55:00,-3.226E-01,4C000000*,-702.6,959.745,90,27.8,45.0,0.408,737.5,2.1,1.050*
2018-09-20 03:56:00,-3.478E-01,4C000000*,-703.0,958.937,89,27.8,44.8,0.408,737.8,2.1,1.050*
2018-09-20 03:57:00,-3.108E-01,4C000000*,-703.0,959.341,89,27.8,45.1,0.408,737.8,2.1,1.050*
2018-09-20 03:58:00,-2.494E-01,4C000000*,-702.6,958.937,90,27.8,44.8,0.408,737.5,2.1,1.050*
2018-09-20 03:59:00,-2.175E-01,4C000000*,-702.6,959.745,90,27.7,44.9,0.408,737.8,2.1,1.050*
2018-09-20 04:00:00,-2.484E-01,4C000000*,-702.6,958.937,90,27.8,45.2,0.408,737.8,2.1,1.050*
2018-09-20 04:01:00,-3.361E-01,4C000000*,-702.6,960.150,89,27.8,44.8,0.408,737.5,2.1,1.050*
2018-09-20 04:02:00,-3.403E-01,4C000000*,-703.0,959.745,90,27.7,45.0,0.408,737.8,2.1,1.050*
2018-09-20 04:03:00,-2.749E-01,4C000000*,-702.6,960.958,90,27.8,45.0,0.408,737.5,2.1,1.050*
2018-09-20 04:04:00,-3.553E-01,4C000000*,-702.6,959.745,88,27.8,44.8,0.408,737.5,2.1,1.050*
2018-09-20 04:05:00,-2.651E-01,4C000000*,-702.6,960.150,90,27.7,45.1,0.408,737.8,2.1,1.050*
2018-09-20 04:06:00,-3.554E-01,4C000000*,-702.6,958.937,90,27.7,44.8,0.408,737.8,2.1,1.050*
2018-09-20 04:07:00,-2.988E-01,4C000000*,-702.6,958.937,89,27.7,45.0,0.408,737.8,2.1,1.050*
2018-09-20 04:08:00,-3.125E-01,4C000000*,-702.6,960.150,89,27.7,45.0,0.408,737.8,2.1,1.050*
2018-09-20 04:09:00,-3.705E-01,4C000000*,-703.0,960.150,90,27.7,44.9,0.408,737.5,2.1,1.050*
2018-09-20 04:10:00,-3.619E-01,4C000000*,-703.0,959.341,91,27.8,45.0,0.408,737.8,2.1,1.050*
2018-09-20 04:11:00,-3.693E-01,4C000000*,-702.6,960.554,91,27.7,44.8,0.408,737.8,2.1,1.050*
2018-09-20 04:12:00,-3.643E-01,4C000000*,-702.6,960.150,90,27.7,45.2,0.408,737.5,2.1,1.050*
2018-09-20 04:13:00,-3.097E-01,4C000000*,-703.0,961.362,88,27.7,44.8,0.408,737.8,2.1,1.050*
2018-09-20 04:14:00,-2.643E-01,4C000000*,-702.6,958.937,89,27.7,45.0,0.408,737.8,2.1,1.050*